Location: Kikino
(54.4440°N, 112.0940°W)
Time: 01:20:21
(UTC+00:00)

Vanguard 3 - Pass Details

Date: 22 May 2024
Orbit: 509 x 3231 km, 33.3° (Epoch: 21 June)

Event Time Altitude Azimuth Distance (km) Brightness Sun altitude
Rises 09:15:50 0° 265° (W) 6,479 11.4 -11.4°
Reaches altitude 10° 09:25:24 10° 237° (WSW) 5,960 11.0 -10.7°
Maximum altitude 09:29:42 11° 224° (SW) 5,978 10.9 -10.4°
Enters shadow 09:31:49 11° 217° (SW) 6,043 10.9 -10.3°
